Weather History for Kalamazoo, MI

Change the Weather History Date:

Monday, October 15, 2012

  Actual Average Record
Temperature  
Mean Temperature 42 °F 51 °F  
Max Temperature 50 °F 61 °F 83 °F (1968)
Min Temperature 34 °F 41 °F 28 °F (2006)
Degree Days  
Heating Degree Days 23 14  
Month to date heating degree days 224 180  
Since 1 July heating degree days 379 329  
Cooling Degree Days 0 0  
Month to date cooling degree days 0 7  
Year to date cooling degree days 1048 674  
Moisture  
Dew Point 43 °F    
Average Humidity 86    
Maximum Humidity 100    
Minimum Humidity 71    
Precipitation  
Precipitation 0.02 in 0.11 in 0.61 in (1966)
Month to date precipitation 2.45 1.60  
Year to date precipitation 22.98 29.01  
Sea Level Pressure  
Sea Level Pressure 29.83 in    
Wind  
Wind Speed 8 mph (WNW)    
Max Wind Speed 18 mph    
Max Gust Speed 24 mph    
Visibility 8 miles    
Events Rain    
T = Trace of Precipitation, MM = Missing Value Source: NWS Daily Summary

Daily Weather History Graph

Daily Weather History Graph

Search for Another Location

Airport:

Trip Planner

Search our weather history database for the weather conditions in past years. The results will help you decide how hot, cold, wet, or windy it might be!

Date:

Astronomy

Oct. 15, 2012 Rise Set
Actual Time 7:55 AM EDT 6:59 PM EDT
Civil Twilight 7:27 AM EDT 7:27 PM EDT
Nautical Twilight 6:54 AM EDT 8:00 PM EDT
Astronomical Twilight 6:22 AM EDT 8:32 PM EDT
Moon 8:06 AM EDT (10/15) 6:57 PM EDT (10/15)
Length of Visible Light 12h 00m
Length of Day
11h 04m
New Moon, 0% of the Moon is Illuminated
Oct 15
New Moon
Oct 21
First Quarter
Oct 29
Full
Nov 6
Last Quarter
Nov 13
New

Hourly Weather History & Observations

Time (EDT) Temp. Windchill Dew Point Humidity Pressure Visibility Wind Dir Wind Speed Gust Speed Precip Events Conditions
12:53 AM 48.9 °F - 48.0 °F 97% 29.67 in 4.0 mi WNW 13.8 mph - 0.01 in Rain Light Rain
1:53 AM 48.9 °F - 46.9 °F 93% 29.69 in 10.0 mi WNW 11.5 mph 24.2 mph 0.01 in   Overcast
2:08 AM 50.0 °F - 46.4 °F 87% 29.70 in 10.0 mi WNW 13.8 mph - N/A   Overcast
2:53 AM 48.9 °F - 46.9 °F 93% 29.71 in 10.0 mi WNW 10.4 mph - N/A   Overcast
3:51 AM 48.2 °F - 46.4 °F 93% 29.72 in 3.0 mi West 5.8 mph - 0.00 in Rain Light Rain
3:53 AM 48.0 °F - 46.0 °F 93% 29.72 in 4.0 mi West 8.1 mph - 0.00 in Rain Light Rain
4:33 AM 48.2 °F - 46.4 °F 93% 29.72 in 4.0 mi West 8.1 mph - 0.00 in Rain Light Rain
4:53 AM 48.0 °F - 46.0 °F 93% 29.73 in 6.0 mi West 8.1 mph - 0.00 in   Overcast
5:53 AM 48.0 °F - 45.0 °F 89% 29.74 in 10.0 mi WNW 10.4 mph - N/A   Overcast
6:11 AM 48.2 °F - 44.6 °F 87% 29.74 in 10.0 mi WNW 10.4 mph - N/A   Overcast
6:20 AM 46.4 °F 41.9 °F 44.6 °F 93% 29.74 in 10.0 mi WNW 9.2 mph - N/A   Overcast
6:51 AM 46.4 °F 42.4 °F 44.6 °F 93% 29.76 in 6.0 mi WNW 8.1 mph - N/A   Overcast
6:53 AM 46.9 °F - 45.0 °F 93% 29.76 in 6.0 mi WNW 10.4 mph - N/A   Overcast
7:04 AM 46.4 °F 41.5 °F 44.6 °F 93% 29.76 in 10.0 mi NW 10.4 mph 18.4 mph N/A   Overcast
7:34 AM 46.4 °F 41.1 °F 44.6 °F 93% 29.77 in 8.0 mi NW 11.5 mph - N/A   Overcast
7:53 AM 46.9 °F - 45.0 °F 93% 29.78 in 6.0 mi NW 8.1 mph - N/A   Overcast
8:53 AM 46.9 °F - 44.1 °F 90% 29.81 in 10.0 mi NW 6.9 mph - N/A   Overcast
9:00 AM 46.4 °F 42.4 °F 44.6 °F 93% 29.80 in 10.0 mi WNW 8.1 mph - N/A   Overcast
9:36 AM 46.4 °F 42.4 °F 44.6 °F 93% 29.81 in 2.5 mi WNW 8.1 mph - 0.00 in Rain Light Rain
9:53 AM 46.9 °F - 45.0 °F 93% 29.83 in 2.5 mi WNW 4.6 mph - 0.00 in Rain Light Rain
10:18 AM 46.4 °F 43.5 °F 44.6 °F 93% 29.83 in 3.0 mi West 5.8 mph - 0.00 in Rain Light Rain
10:53 AM 46.9 °F - 45.0 °F 93% 29.85 in 7.0 mi WNW 6.9 mph - 0.01 in Rain Light Rain
11:53 AM 48.0 °F - 45.0 °F 89% 29.87 in 9.0 mi WNW 9.2 mph - 0.00 in   Overcast
12:53 PM 48.0 °F - 44.1 °F 86% 29.88 in 10.0 mi West 9.2 mph - N/A   Overcast
1:53 PM 48.9 °F - 43.0 °F 80% 29.89 in 10.0 mi North - - N/A   Overcast
2:53 PM 48.0 °F - 41.0 °F 77% 29.91 in 10.0 mi NW 12.7 mph - N/A   Overcast
3:53 PM 48.9 °F - 39.9 °F 71% 29.91 in 10.0 mi WNW 12.7 mph - N/A   Overcast
4:53 PM 48.0 °F - 39.0 °F 71% 29.93 in 10.0 mi WNW 11.5 mph - N/A   Overcast
5:53 PM 48.0 °F - 39.0 °F 71% 29.95 in 10.0 mi WNW 11.5 mph - N/A   Overcast
6:53 PM 46.9 °F - 39.0 °F 74% 29.95 in 10.0 mi WNW 5.8 mph - N/A   Overcast
7:53 PM 46.9 °F - 39.0 °F 74% 29.96 in 10.0 mi NW 5.8 mph - N/A   Overcast
8:53 PM 46.0 °F 43.9 °F 37.9 °F 73% 29.97 in 10.0 mi WNW 4.6 mph - N/A   Overcast
9:53 PM 44.1 °F 42.5 °F 37.9 °F 79% 29.97 in 10.0 mi WNW 3.5 mph - N/A   Overcast
10:15 PM 44.6 °F 42.2 °F 37.4 °F 76% 29.96 in 10.0 mi WNW 4.6 mph - N/A   Mostly Cloudy
10:30 PM 42.8 °F 41.1 °F 37.4 °F 81% 29.97 in 10.0 mi WNW 3.5 mph - N/A   Scattered Clouds
10:53 PM 41.0 °F - 37.0 °F 86% 29.99 in 10.0 mi Calm Calm - N/A   Partly Cloudy
11:53 PM 39.0 °F - 37.0 °F 93% 30.00 in 10.0 mi Calm Calm - N/A   Clear